Location: Kerentrech
(47.7567°N, 3.3595°W)
Time: 18:35:41
(UTC+00:00)

Okean O Rocket - Pass Details

Date: 17 February 2020
Orbit: 622 x 645 km, 98.2° (Epoch: 29 March)

Event Time Altitude Azimuth Distance (km) Brightness Sun altitude
Rises 06:32:36 0° 9° (N) 2,940 5.0 -8.1°
Reaches altitude 10° 06:34:51 10° 5° (N) 2,023 4.2 -7.7°
Maximum altitude 06:39:08 52° 289° (WNW) 783 1.7 -7.0°
Drops below altitude 10° 06:43:21 10° 213° (SSW) 1,996 4.0 -6.3°
Sets 06:45:33 0° 209° (SSW) 2,895 4.8 -6.0°
